This demonstration page uses our WeatherBlox Daily Observations layout. Learn more.

Left ArrowRight Arrow

Hourly Observations for May 17, 2020

Temp ( °F °C ) Dew Point ( °F °C ) Humidity (%) Winds ( mph kmh ) Pressure ( in mb ) Visibility ( mi km ) Precip ( " mm )
12:54 am 00:54 Cloudy 55 12.8 50 10 83 83 NNW 15 24 29.92 1013 10 16.0934 0 0
1:54 am 01:54 Cloudy 55 12.8 50 10 83 83 NNW 10 17 29.92 1013 10 16.0934 0 0
2:54 am 02:54 Cloudy 55 12.8 50 10 83 83 NW 13 20 29.91 1013 10 16.0934 0 0
3:54 am 03:54 Cloudy 56 13.3 50 10 81 81 NW 9 15 29.9 1013 10 16.0934 0 0
4:54 am 04:54 Cloudy 56 13.3 50 10 81 81 NW 14 22 29.91 1013 10 16.0934 0 0
5:54 am 05:54 Cloudy 55 12.8 50 10 83 83 NW 10 17 29.92 1013 10 16.0934 0 0
6:54 am 06:54 Cloudy 55 12.8 49 9.4 80 80 NW 14 22 29.93 1013 10 16.0934 0 0
7:11 am 07:11 Cloudy 56 13.3 49 9.4 77 77 NW 13 20 29.95 1014 10 16.0934 0 0
7:28 am 07:28 Cloudy 56 13.3 49 9.4 77 77 NW 13 20 29.94 1014 10 16.0934 0 0
7:54 am 07:54 Cloudy 56 13.3 48 8.9 75 75 NW 14 22 29.94 1014 10 16.0934 0 0
8:09 am 08:09 Cloudy 56 13.3 48 8.9 75 75 NW 14 22 29.95 1014 10 16.0934 0 0
8:54 am 08:54 Cloudy 56 13.3 49 9.4 77 77 NW 14 22 29.96 1014 10 16.0934 0 0
9:26 am 09:26 Cloudy 59 15 49 9.4 69 69 NW 17 28 29.94 1014 10 16.0934 0 0
9:54 am 09:54 Mostly Cloudy 61 16.1 49 9.4 65 65 NW 20 31 29.94 1014 10 16.0934 0 0
10:11 am 10:11 Partly Cloudy 61 16.1 49 9.4 65 65 NW 20 31 29.93 1014 10 16.0934 0 0
10:23 am 10:23 Mostly Cloudy 61 16.1 48 8.9 63 63 NW 21 33 29.93 1014 10 16.0934 0 0
10:54 am 10:54 Mostly Cloudy 61 16.1 48 8.9 63 63 NW 23 37 29.93 1014 10 16.0934 0 0
11:29 am 11:29 Mostly Sunny 64 17.8 48 8.9 56 56 NW 24 39 29.92 1013 10 16.0934 0 0
11:54 am 11:54 Partly Cloudy 64 17.8 47 8.3 54 54 NNW 23 37 29.93 1014 10 16.0934 0 0
12:54 pm 12:54 Mostly Cloudy 64 17.8 47 8.3 54 54 NNW 25 41 29.93 1014 10 16.0934 0 0
1:54 pm 13:54 Cloudy 65 18.3 48 8.9 54 54 NNW 20 31 29.93 1014 10 16.0934 0 0
2:54 pm 14:54 Cloudy 65 18.3 48 8.9 54 54 NNW 24 39 29.92 1013 10 16.0934 0 0
3:54 pm 15:54 Mostly Cloudy 66 18.9 48 8.9 52 52 NW 24 39 29.91 1013 10 16.0934 0 0
4:54 pm 16:54 Cloudy 64 17.8 47 8.3 54 54 NNW 22 35 29.91 1013 10 16.0934 0 0
5:54 pm 17:54 Cloudy 65 18.3 48 8.9 54 54 NNW 20 31 29.92 1013 10 16.0934 0 0
6:54 pm 18:54 Cloudy 63 17.2 47 8.3 56 56 NNW 20 31 29.92 1013 10 16.0934 0 0
7:54 pm 19:54 Mostly Cloudy 63 17.2 47 8.3 56 56 NNW 16 26 29.93 1013 10 16.0934 0 0
8:54 pm 20:54 Cloudy 62 16.7 47 8.3 58 58 NNW 14 22 29.93 1014 10 16.0934 0 0
9:54 pm 21:54 Cloudy 60 15.6 47 8.3 62 62 N 23 37 29.94 1014 10 16.0934 0 0
10:54 pm 22:54 Cloudy 57 13.9 48 8.9 72 72 N 21 33 29.97 1015 10 16.0934 0 0
11:08 pm 23:08 Cloudy 57 13.9 47 8.3 69 69 N 22 35 29.97 1015 10 16.0934 0 0
11:16 pm 23:16 Cloudy 57 13.9 47 8.3 69 69 N 24 39 29.97 1015 10 16.0934 0 0
11:54 pm 23:54 Mostly Clear 54 12.2 47 8.3 77 77 N 15 24 29.97 1015 10 16.0934 0 0

Powered by AerisWeather